Weather History for Owensboro, KY

Change the Weather History Date:

Thursday, August 9, 2012

  Actual Average Record
Temperature  
Mean Temperature 82 °F -  
Max Temperature 91 °F 88 °F 101 °F (1944)
Min Temperature 72 °F 65 °F 51 °F (1989)
Cooling Degree Days 17    
Growing Degree Days 32 (Base 50)    
Moisture  
Dew Point 69 °F    
Average Humidity 70    
Maximum Humidity 93    
Minimum Humidity 46    
Precipitation  
Precipitation 0.09 in - - ()
Sea Level Pressure  
Sea Level Pressure 29.82 in    
Wind  
Wind Speed 6 mph (SSE)    
Max Wind Speed 25 mph    
Max Gust Speed -    
Visibility 8 miles    
Events Rain , Thunderstorm    
Averages and records for this station are not official NWS values.
T = Trace of Precipitation, MM = Missing Value Source: NWS Daily Summary

Daily Weather History Graph

Daily Weather History Graph

Search for Another Location

Airport:

Trip Planner

Search our weather history database for the weather conditions in past years. The results will help you decide how hot, cold, wet, or windy it might be!

Date:

Astronomy

Aug. 09, 2012 Rise Set
Actual Time 5:59 AM CDT 7:48 PM CDT
Civil Twilight 5:31 AM CDT 8:16 PM CDT
Nautical Twilight 4:56 AM CDT 8:50 PM CDT
Astronomical Twilight 4:19 AM CDT 9:27 PM CDT
Moon 11:49 PM CDT (8/9) 1:30 PM CDT (8/9)
Length of Visible Light 14h 45m
Length of Day
13h 48m
Waning Gibbous, 51% of the Moon is Illuminated
Aug 9
Waning Gibbous
Aug 9
Last Quarter
Aug 17
New
Aug 24
First Quarter
Aug 31
Full

Hourly Weather History & Observations

Time (CDT) Temp. Heat Index Dew Point Humidity Pressure Visibility Wind Dir Wind Speed Gust Speed Precip Events Conditions
12:56 AM 77.9 °F - 70.9 °F 79% 29.89 in 10.0 mi South 3.5 mph - N/A   Clear
1:56 AM 77.9 °F - 70.0 °F 76% 29.89 in 10.0 mi South 3.5 mph - N/A   Clear
2:56 AM 77.0 °F - 68.9 °F 76% 29.87 in 10.0 mi Calm Calm - N/A   Clear
3:56 AM 77.0 °F - 70.0 °F 79% 29.86 in 10.0 mi Calm Calm - N/A   Clear
4:56 AM 74.8 °F - 68.9 °F 82% 29.86 in 10.0 mi Calm Calm - N/A   Clear
5:56 AM 74.8 °F - 70.0 °F 85% 29.89 in 7.0 mi Variable 4.6 mph - N/A   Scattered Clouds
6:56 AM 75.9 °F - 68.9 °F 79% 29.89 in 7.0 mi ENE 9.2 mph - N/A   Clear
7:56 AM 77.9 °F - 68.9 °F 74% 29.88 in 7.0 mi East 8.1 mph - N/A   Clear
8:56 AM 81.0 °F 84.7 °F 70.9 °F 71% 29.88 in 7.0 mi ESE 6.9 mph - N/A   Clear
9:56 AM 83.8 °F 88.6 °F 70.9 °F 65% 29.87 in 7.0 mi ESE 9.2 mph - N/A   Partly Cloudy
10:56 AM 84.9 °F 90.7 °F 72.0 °F 65% 29.88 in 7.0 mi South 9.2 mph - N/A   Clear
11:56 AM 88.0 °F 95.6 °F 72.9 °F 61% 29.86 in 10.0 mi SSW 8.1 mph - N/A   Partly Cloudy
12:56 PM 90.9 °F 98.9 °F 72.9 °F 55% 29.83 in 7.0 mi SW 9.2 mph - N/A   Scattered Clouds
1:56 PM 91.9 °F 98.4 °F 70.9 °F 50% 29.79 in 8.0 mi South 5.8 mph - N/A   Scattered Clouds
2:21 PM 91.4 °F 96.8 °F 69.8 °F 49% 29.81 in 8.0 mi South 8.1 mph - N/A Thunderstorm Mostly Cloudy
2:56 PM 86.9 °F 88.1 °F 63.9 °F 46% 29.78 in 8.0 mi SSW 12.7 mph - N/A   Mostly Cloudy
3:15 PM 84.2 °F 86.6 °F 66.2 °F 55% 29.79 in 8.0 mi South 10.4 mph - 0.00 in Rain , Thunderstorm Light Thunderstorms and Rain
3:56 PM 77.0 °F - 70.0 °F 79% 29.79 in 6.0 mi SW 19.6 mph - 0.00 in Rain , Thunderstorm Light Thunderstorms and Rain
4:03 PM 73.4 °F - 68.0 °F 83% 29.81 in 2.0 mi SW 25.3 mph - 0.04 in Rain , Thunderstorm Light Thunderstorms and Rain
4:12 PM 75.2 °F - 68.0 °F 78% 29.81 in 5.0 mi SSW 11.5 mph - 0.09 in   Overcast
4:56 PM 83.8 °F 88.1 °F 70.0 °F 63% 29.77 in 10.0 mi SSW 3.5 mph - 0.09 in   Partly Cloudy
5:56 PM 86.9 °F 89.6 °F 66.9 °F 51% 29.75 in 10.0 mi SSE 3.5 mph - N/A   Clear
6:56 PM 83.8 °F 87.5 °F 68.9 °F 61% 29.76 in 10.0 mi East 3.5 mph - N/A   Mostly Cloudy
7:56 PM 81.0 °F 84.1 °F 68.9 °F 67% 29.76 in 10.0 mi ESE 3.5 mph - N/A   Clear
8:56 PM 77.0 °F - 68.9 °F 76% 29.78 in 10.0 mi NE 5.8 mph - N/A   Clear
9:56 PM 75.9 °F - 68.0 °F 76% 29.78 in 10.0 mi Calm Calm - N/A   Clear
10:56 PM 73.9 °F - 68.9 °F 84% 29.75 in 10.0 mi Calm Calm - N/A   Clear
11:56 PM 72.0 °F - 70.0 °F 93% 29.74 in 8.0 mi South 3.5 mph - N/A   Mostly Cloudy